Tracking 27112 objects as of 27-Mar-2023
HD Live streaming from Space Station
objects crossing your sky now

ASAP-S

Track ASAP-S now!
10-day predictions
ASAP-S is classified as:


NORAD ID: 38013
Int'l Code: 2011-076G
Perigee: 570.1 km
Apogee: 578.6 km
Inclination: 98.1 °
Period: 96.0 minutes
Semi major axis: 6945 km
RCS: 2.764 m2 (large)
Launch date: December 17, 2011
Source: France (FR)
Launch site: FRENCH GUIANA (FRGUI)
Your satellite tracking list
Your tracking list is empty




NASA's NSSDC Master Catalog

Two Line Element Set (TLE):
1 38013U 11076G   23085.86235728  .00006355  00000-0  51725-3 0  9991
2 38013  98.0963 298.6217 0006120 195.8742 164.2289 14.99894954615020
Source of the keplerian elements: AFSPC